{"data":{"norad_id":58148,"intl_designator":"2023-165A","name":"COSMOS 2570","alt_names":[],"object_type":"PAYLOAD","status":"ACTIVE","operator":null,"country":"CIS","launch_date":"2023-10-27","launch_site_code":"PLMSC","launch_vehicle":null,"mission":null,"orbit_class":"UNKNOWN","rcs_meters":null,"size_class":null,"mass_kg":null,"dimensions":null,"purposes":[],"wikipedia_slug":null,"has_3d_model":false,"image_url":null,"decayed_at":null,"tle_current":{"epoch":"2026-05-25T03:06:14.668416Z","epoch_age_seconds":67091,"freshness":"FRESH","line1":"1 58148U 23165A   26145.12933644  .00000004  00000+0  57024-4 0  9998","line2":"2 58148  67.1501 345.4702 0006523 278.5752  81.4593 13.96676482131417","mean_motion":13.96676482,"eccentricity":0.0006523,"inclination_deg":67.1501,"raan_deg":345.4702,"arg_perigee_deg":278.5752,"mean_anomaly_deg":81.4593,"bstar":5.7024e-5,"rev_number":13141,"period_min":103.10190073065,"perigee_km":900.57571370394,"apogee_km":910.07772046925,"semimajor_km":7283.4637170866,"source":"CELESTRAK","updated_at":"2026-05-25T13:38:00.544407Z"}}}